Location: Derby
(52.9213°N, 1.4761°W)
Time: 17:35:26
(UTC+01:00)

Tiros 1 - Pass Details

Date: 19 May 2025
Orbit: 620 x 651 km, 48.4° (Epoch: 13 June)

Event Time Altitude Azimuth Distance (km) Brightness Sun altitude
Rises 19:53:26 0° 238° (WSW) 2,894 11.0 8.5°
Reaches altitude 10° 19:55:51 10° 230° (SW) 1,993 10.1 8.1°
Maximum altitude 20:00:04 38° 163° (SSE) 966 7.9 7.5°
Drops below altitude 10° 20:04:21 10° 96° (E) 2,014 9.1 6.9°
Sets 20:06:48 0° 88° (E) 2,929 10.0 6.6°
